Overview Statistics Trail Chart Weather Telemetry Raw packets
 

This is the latest recevied weather packets stored in our database for station/object s59zo-6. If no packets are shown the sender has not sent any weather packets the latest 10 day(s).

<< 70 71 72 73 74 75 76 >>
Time Temp. Humidity Pressure Rain* Wind** Luminosity Snow
1788102304 31.11° C 35% 1018 hPa 0 mm - - -
1788102005 31.11° C 35% 1018 hPa 0 mm - - -
1788101705 31.11° C 35% 1017.9 hPa 0 mm - - -
1788101405 31.11° C 35% 1017.9 hPa 0 mm - - -
1788101105 31.11° C 35% 1018.1 hPa 0 mm - - -
1788100805 31.11° C 36% 1018.2 hPa 0 mm - - -
1788100504 30.56° C 35% 1018.2 hPa 0 mm - - -
1788100205 30.56° C 35% 1018.1 hPa 0 mm - - -
1788099904 30.56° C 35% 1018.2 hPa 0 mm - - -
1788099605 30.56° C 36% 1018.2 hPa 0 mm - - -
1788099304 30° C 37% 1018.1 hPa 0 mm - - -
1788099004 30° C 37% 1018.3 hPa 0 mm - - -
1788098704 30° C 40% 1018.3 hPa 0 mm - - -
1788098405 30° C 40% 1018.2 hPa 0 mm - - -
1788098106 30° C 38% 1018.4 hPa 0 mm - - -
1788097804 29.44° C 40% 1018.4 hPa 0 mm - - -
1788097504 29.44° C 38% 1018.4 hPa 0 mm - - -
1788097205 30° C 38% 1018.6 hPa 0 mm - - -
1788096904 29.44° C 40% 1018.6 hPa 0 mm - - -
1788096605 29.44° C 40% 1018.6 hPa 0 mm - - -
1788096304 29.44° C 40% 1018.6 hPa 0 mm - - -
1788096008 29.44° C 41% 1018.7 hPa 0 mm - - -
1788095704 29.44° C 40% 1018.7 hPa 0 mm - - -
1788095405 29.44° C 40% 1018.7 hPa 0 mm - - -
1788095104 28.89° C 41% 1018.9 hPa 0 mm - - -

* Rain latest hour (hover to see other rain measurements)
** Current wind speed in m/s (hover to see current wind gust speed)